Weather History for Lafayette, LA

Change the Weather History Date:

Thursday, September 18, 2014

  Actual Average Record
Temperature  
Mean Temperature 79 °F 79 °F  
Max Temperature 84 °F 88 °F 100 °F (1933)
Min Temperature 73 °F 69 °F 47 °F (1903)
Degree Days  
Heating Degree Days 0 0  
Month to date heating degree days 0 0  
Since 1 July heating degree days 0 0  
Cooling Degree Days 14 14  
Month to date cooling degree days 283 285  
Year to date cooling degree days 2340 2546  
Growing Degree Days 28 (Base 50)    
Moisture  
Dew Point 75 °F    
Average Humidity 87    
Maximum Humidity 100    
Minimum Humidity 74    
Precipitation  
Precipitation 0.08 in 0.15 in 1.44 in (1943)
Month to date precipitation 5.21 2.95  
Year to date precipitation 51.30 43.57  
Sea Level Pressure  
Sea Level Pressure 29.91 in    
Wind  
Wind Speed 1 mph (NE)    
Max Wind Speed 9 mph    
Max Gust Speed 14 mph    
Visibility 9 miles    
Events Rain , Thunderstorm    
T = Trace of Precipitation, MM = Missing Value Source: NWS Daily Summary

Daily Weather History Graph

Daily Weather History Graph

Search for Another Location

Airport:

Trip Planner

Search our weather history database for the weather conditions in past years. The results will help you decide how hot, cold, wet, or windy it might be!

Date:

Astronomy

Sep. 18, 2014 Rise Set
Actual Time 6:54 AM CDT 7:09 PM CDT
Civil Twilight 6:30 AM CDT 7:33 PM CDT
Nautical Twilight 6:02 AM CDT 8:01 PM CDT
Astronomical Twilight 5:33 AM CDT 8:29 PM CDT
Moon 2:02 AM CDT (9/18) 3:45 PM CDT (9/18)
Length of Visible Light 13h 03m
Length of Day
12h 15m
Waning Crescent, 26% of the Moon is Illuminated
Sep 18
Waning Crescent
Sep 24
New
Oct 1
First Quarter
Oct 8
Full
Oct 15
Last Quarter

Hourly Weather History & Observations

Time (CDT) Temp. Heat Index Dew Point Humidity Pressure Visibility Wind Dir Wind Speed Gust Speed Precip Events Conditions
12:37 AM 75.9 °F - 75.9 °F 100% 29.92 in 10.0 mi Calm Calm - N/A   Scattered Clouds
12:53 AM 75.0 °F - 75.0 °F 100% 29.91 in 10.0 mi Calm Calm - N/A   Scattered Clouds
1:38 AM 75.9 °F - 75.9 °F 100% 29.90 in 10.0 mi Calm Calm - N/A   Mostly Cloudy
1:53 AM 75.9 °F - 75.9 °F 100% 29.90 in 9.0 mi Calm Calm - N/A   Overcast
2:53 AM 75.9 °F - 75.9 °F 100% 29.89 in 10.0 mi Calm Calm - N/A   Scattered Clouds
3:07 AM 75.9 °F - 75.9 °F 100% 29.89 in 10.0 mi Calm Calm - N/A   Mostly Cloudy
3:24 AM 75.9 °F - 75.9 °F 100% 29.89 in 9.0 mi Calm Calm - N/A   Scattered Clouds
3:50 AM 75.2 °F - 75.2 °F 100% 29.89 in 2.5 mi Calm Calm - N/A   Mostly Cloudy
3:53 AM 75.2 °F - 75.2 °F 100% 29.89 in 1.2 mi Calm Calm - N/A   Mostly Cloudy
4:02 AM 75.0 °F - 75.0 °F 100% 29.89 in 0.8 mi Calm Calm - N/A   Mist
4:10 AM 75.0 °F - 75.0 °F 100% 29.89 in 2.0 mi NE 3.5 mph - N/A   Mostly Cloudy
4:15 AM 75.0 °F - 75.0 °F 100% 29.89 in 8.0 mi Calm Calm - N/A   Scattered Clouds
4:53 AM 75.9 °F - 75.0 °F 97% 29.90 in 10.0 mi Calm Calm - N/A   Clear
5:09 AM 75.9 °F - 75.0 °F 97% 29.90 in 10.0 mi Calm Calm - N/A   Scattered Clouds
5:17 AM 75.9 °F - 75.0 °F 97% 29.91 in 10.0 mi Calm Calm - N/A   Mostly Cloudy
5:53 AM 75.9 °F - 75.0 °F 97% 29.91 in 10.0 mi Calm Calm - N/A   Scattered Clouds
6:53 AM 75.9 °F - 75.0 °F 97% 29.92 in 10.0 mi Calm Calm - N/A   Clear
7:53 AM 75.9 °F - 75.0 °F 97% 29.94 in 10.0 mi Calm Calm - N/A   Clear
8:53 AM 77.0 °F - 75.0 °F 94% 29.94 in 10.0 mi Calm Calm - N/A   Clear
9:53 AM 79.0 °F - 75.9 °F 90% 29.95 in 10.0 mi NE 3.5 mph - N/A   Clear
10:53 AM 81.0 °F 86.7 °F 75.0 °F 82% 29.94 in 10.0 mi NE 3.5 mph - N/A   Clear
11:53 AM 80.1 °F 85.1 °F 75.0 °F 85% 29.94 in 10.0 mi Calm Calm - N/A   Clear
12:53 PM 82.9 °F 90.2 °F 75.0 °F 77% 29.92 in 10.0 mi ENE 3.5 mph - N/A   Clear
1:37 PM 84.0 °F 91.9 °F 75.0 °F 74% 29.91 in 10.0 mi NE 3.5 mph - N/A   Mostly Cloudy
1:53 PM 84.0 °F 91.9 °F 75.0 °F 74% 29.91 in 10.0 mi Calm Calm - N/A   Mostly Cloudy
2:53 PM 82.9 °F 90.2 °F 75.0 °F 77% 29.89 in 10.0 mi ENE 3.5 mph - N/A   Mostly Cloudy
3:00 PM 84.0 °F 91.9 °F 75.0 °F 74% 29.89 in 10.0 mi NE 4.6 mph - N/A   Partly Cloudy
3:53 PM 82.9 °F 90.8 °F 75.9 °F 79% 29.87 in 10.0 mi Calm Calm - N/A   Clear
4:53 PM 82.9 °F 90.2 °F 75.0 °F 77% 29.87 in 10.0 mi Calm Calm - N/A   Clear
5:53 PM 81.0 °F 87.3 °F 75.9 °F 85% 29.87 in 10.0 mi SW 4.6 mph - N/A   Mostly Cloudy
6:53 PM 79.0 °F - 78.1 °F 97% 29.88 in 10.0 mi Calm Calm - N/A   Mostly Cloudy
7:53 PM 79.0 °F - 78.1 °F 97% 29.88 in 9.0 mi Calm Calm - 0.00 in Rain Light Rain
8:16 PM 75.9 °F - 75.0 °F 97% 29.89 in 10.0 mi Variable 4.6 mph - 0.01 in Rain Light Rain
8:41 PM 75.0 °F - 72.0 °F 90% 29.91 in 10.0 mi South 4.6 mph - 0.01 in   Scattered Clouds
8:53 PM 73.9 °F - 73.0 °F 97% 29.90 in 9.0 mi Calm Calm - 0.02 in Rain Rain
9:53 PM 73.9 °F - 73.0 °F 97% 29.92 in 10.0 mi Calm Calm - 0.00 in   Overcast
10:33 PM 73.0 °F - 73.0 °F 100% 29.93 in 9.0 mi NNE 4.6 mph - N/A Thunderstorm Thunderstorm
10:42 PM 73.0 °F - 72.0 °F 96% 29.92 in 10.0 mi NNE 6.9 mph - N/A Thunderstorm Overcast
10:50 PM 73.4 °F - 71.6 °F 94% 29.92 in 10.0 mi NE 5.8 mph - N/A   Overcast
10:53 PM 73.0 °F - 72.0 °F 96% 29.92 in 10.0 mi NE 3.5 mph - N/A   Overcast
11:53 PM 73.0 °F - 72.0 °F 96% 29.93 in 10.0 mi ENE 3.5 mph - 0.02 in Rain Light Rain